DECAYED

FALCON 9 R/B, 45921 (Decayed)

Orbit data source: Space-Track

FALCON 9 R/B, 45921 was space debris in LEO originally from a launch on Mon, 20 Jul 2020 UTC launched from the Air Force Eastern Test Range (AFETR). Debris objects in space refer to the collection of defunct objects orbiting the Earth. Examples of debris include non-operational satellites, rocket bodies, and fragments generated from explosions, collisions, or faulty payload assembly.

Not visible in the next 10 days
Identifier
45921, 2020-048B
Orbit
Decayed
Country
Flag of USUS
Related business
Manufacturer
SpaceX
Mission
Decayed spacecraft
Bus & Motor
F9ST2, Unknown motor
Mass
~4,000 kg wet, ~4,000 kg dry
Launch date (UTC)
2020-07-20 (6 years ago)
Launch vehicle
Unknown
Launch site
Air Force Eastern Test Range (AFETR)
Object type
Payload
Rocket body
Debris
Shape & HBR
Cyl, 7.8 m
Radar Cross Section
39.980 m², Large (>1 m²)

Expand to show TLE details & history
Last TLE update: 11 months ago

TLE from 11 months ago
0 FALCON 9 R/B
1 45921U 20048B   25138.57040454  .21669260 -93497-5  51125-3 0  9990
2 45921  26.4509 261.3138 0466870 144.3057 316.8299 15.45190117 57743
Epoch: 2025-05-18T13:41Z
TLE epoch observation values (Epoch: 2025-05-18T13:41:22.952Z)
Latitude
26.35052°
Longitude
-82.36118°
Altitude
204.665 km
Speed
7.916 km/s
True Right ascension
23h 57m 55s
True Declination
26° 12' 09"
Sunlit
Object was in daylight at epoch
Visualization orbit readout
Latitude
Unknown
Longitude
Unknown
Altitude
Unknown
Speed
Unknown
Apparent Right ascension
Unknown
Apparent Declination
Unknown
Sunlit
N/A
Visualization observer readout
Local Sidereal Time
23:11:03
Azimuth
Unknown
Elevation
Unknown
Doppler factor
Unknown
Orbital elements
Apogee altitude
753.487 km
Perigee altitude
117.281 km
Semi-major axis
6,813.521 km
Eccentricity
0.04669
Inclination
26.4509°
RAAN
261.3138°
Arg. of periapsis
144.3057°
True anomaly
313.01009°
Mean anomaly
316.8299°
Eccentric anomaly
314.93631°
Mean motion
3.8591 °/min
Orbital period
93.29 mins
BSTAR
0.00051125
Loading maneuver chart data...
Computing Atmospheric mass density...
Loading historical data...
Loading historical data...
Loading historical data...
Loading historical data...
Loading historical data...
Loading historical data...
Loading historical data...
Other satellites on launch #48 in the year 2020 (2020-07-20 UTC)

Documentation

Showing up to 5 results
|